Other Public Products
Issued by NWS Grand Forks, ND

Home | Current Version | Previous Version | Graphics & Text | Print | Product List | Glossary On
Versions: 1 2 3 4 5 6 7 8 9 10 11 12 13 14 15 16 17 18 19 20 21 22 23 24 25 26 27 28 29 30 31 32 33 34 35 36 37 38 39 40 41 42 43 44 45 46 47 48 49 50
000
FPUS83 KFGF 290910
OPUFGF
PRAIRIE TO PINES WEATHER ROUNDUP
NATIONAL WEATHER SERVICE EASTERN NORTH DAKOTA/GRAND FORKS ND
400 AM CDT FRI JUL 29 2016

 **SATELLITE DATA USED TO AUGMENT SKY COVER AT AUTOMATED STATIONS**
 *****  WEATHER ACROSS EASTERN NORTH DAKOTA  *****

CITY           SKY/WX    TMP DP  RH WIND       PRES   REMARKS
GRAND FORKS    CLEAR     53  50  89 W6        30.09S
GRAND FORKS AF CLEAR     53  52  97 NW3       30.10S
GRAND CITY NWS   N/A     55 N/A N/A NW3         N/A
BUXTON           N/A     58  58  98 NW3         N/A
DEVILS LAKE    CLEAR     58  56  93 SE3       30.13F
FARGO          MOCLDY    62  56  80 N5        30.08F
WAHPETON ARPT  SUNNY     59  55  88 CALM      30.08S
$$

 *****  WEATHER ACROSS CENTRAL AND WESTERN NORTH DAKOTA  *****

CITY           SKY/WX    TMP DP  RH WIND       PRES   REMARKS
JAMESTOWN      MOCLDY    61  59  93 NE3       30.11S
BISMARCK       CLOUDY    63  60  90 NE6       30.11F
MINOT          MOCLDY    60  54  80 SW7       30.11F
MINOT AFB      CLEAR     51  49  91 SW6       30.10F
GARRISON         N/A     56  55  97 N6        30.12F
WILLISTON      CLEAR     53  51  93 CALM      30.11F
DICKINSON      PTCLDY    55  55 100 S3        30.12S FOG
HETTINGER      CLOUDY    54  53  97 CALM      30.15F
$$

 *****  OTHER OBSERVATIONS NORTHEAST NORTH DAKOTA  *****

CITY           SKY/WX    TMP DP  RH WIND       PRES   REMARKS
WALHALLA       NOT AVBL
LANGDON        FAIR      50  50 100 CALM      30.12F
CAVALIER       FAIR      54  54 100 CALM      30.10S
GRAFTON        FAIR      57  57 100 NW5       30.11F
CANDO          NOT AVBL
FORT TOTTEN      N/A     60  56  85 SE3       29.95S
ROLLA          FAIR      50  50 100 SW3       30.14S
RUGBY          NOT AVBL
 ***** THE ABOVE OBSERVATIONS ARE NON NWS ARE NOT QUALITY
        CONTROLLED AND MAY MIS-REPORT RAIN FOR SNOW...
$$

 *****  OTHER OBSERVATIONS SOUTHEAST NORTH DAKOTA *****

CITY           SKY/WX    TMP DP  RH WIND       PRES   REMARKS
COOPERSTOWN    NOT AVBL
VALLEY CITY    CLOUDY    61  61 100 N5        30.13S
OAKES            N/A    N/A N/A N/A MISG        N/A
GWINNER        FAIR      59  57  94 CALM      30.10S
SHEYENNE NWR     N/A     61  55  79 N5        29.95
BUFFALO          N/A     59  53  78 NE5         N/A
WYNDMERE       NOT AVBL
 ***** THE ABOVE OBSERVATIONS ARE NON NWS ARE NOT QUALITY
       CONTROLLED AND MAY MIS-REPORT RAIN FOR SNOW...
$$

  *****  WEATHER ACROSS NORTHERN MINNESOTA  *****

CITY           SKY/WX    TMP DP  RH WIND       PRES   REMARKS
FLAG ISLAND    CLEAR     64  59  82 CALM      30.09S
WARROAD        CLEAR     55  52  88 CALM      30.11S
ROSEAU         CLEAR     54  48  82 CALM      30.11S
HALLOCK        CLEAR     54  52  94 CALM      30.10S
THF RVR FALLS  CLEAR     57  54  89 CALM      30.11S
HALSTAD          N/A     54  52  92 N5          N/A
FOSSTON        CLEAR     50  45  81 CALM      30.11S HAZE
BAUDETTE       PTCLDY    53  51  93 CALM      30.09F
WASKISH        PTCLDY    55  54  94 CALM      30.09S
CROOKSTON      CLEAR     55  54  94 CALM      30.10F
$$
  *****  WEATHER ACROSS CENTRAL AND WEST MINNESOTA  *****

CITY           SKY/WX    TMP DP  RH WIND       PRES   REMARKS
BEMIDJI        CLEAR     55  54  94 CALM      30.10F
PARK RAPIDS    CLEAR     56  53  90 CALM      30.10F
WADENA         CLEAR     55  54  94 CALM      30.10F
DETROIT LAKES  CLEAR     63  59  88 CALM      30.11F
MOORHEAD       CLEAR     57  55  94 CALM      30.09F
FERGUS FALLS   CLEAR     61  61 100 CALM      30.10S
ELBOW LAKE     FAIR      62  60  91 CALM      30.09F
MORRIS MN      CLEAR     61  59  94 NE3       30.08S
STAPLES        CLEAR     55  55 100 CALM      30.11S
WHEATON        NOT AVBL
$$
  *****  WEATHER ELSEWHERE ACROSS MINNESOTA  *****

CITY           SKY/WX    TMP DP  RH WIND       PRES   REMARKS
DULUTH         CLEAR     51  49  92 CALM      30.11F
INTRNTL FALLS  PTCLDY    50  48  93 CALM      30.10S
ELY            MOCLDY    48  46  93 CALM      30.13S
CLOQUET        CLEAR     50  48  93 N5        30.11F
BRAINERD       MOCLDY    59  58  96 N3        30.11S
HIBBING        PTCLDY    45  45 100 CALM      30.12F
ALEXANDRIA     CLEAR     57  54  89 N3        30.10F
SAINT CLOUD    CLEAR     56  55  97 N5        30.08F
MINNEAPOLIS    PTCLDY    63  56  78 N6        30.05F
$$

  *****  WEATHER ACROSS SOUTH DAKOTA  *****

CITY           SKY/WX    TMP DP  RH WIND       PRES   REMARKS
SIOUX FALLS    PTCLDY    57  54  89 N5        30.07F
BROOKINGS      CLEAR     55  53  93 NW7       30.08F
WATERTOWN      MOCLDY    63  59  87 N3        30.09F
HURON          CLEAR     60  56  86 CALM      30.07F
SISSETON         N/A     60  59  96 NW6       30.07F
ABERDEEN       CLOUDY    64  61  90 CALM      30.09S
MITCHELL       CLOUDY    62  57  83 CALM      30.08F
PIERRE         PTCLDY    63  62  97 W7        30.08F
MOBRIDGE       CLOUDY    69  59  70 CALM      30.07S
RAPID CITY     FOG       57  56  96 E6        30.14F VSB 1/2
$$

  *****  SOME WEATHER IN NEARBY STATES *****

CITY           SKY/WX    TMP DP  RH WIND       PRES   REMARKS
GLASGOW MT     CLEAR     58  53  84 E8        30.07F
GREAT FALLS MT CLEAR     64  50  60 SE7       30.08F
CHEYENNE WY    CLOUDY    58  56  93 SW8       30.26F
SCOTTSBLUFF NE CLEAR     60  57  89 NE6       30.16F
OMAHA NE       CLOUDY    69  64  84 N7        30.00S
DES MOINES IA  CLOUDY    68  63  84 N9        29.97F
DAVENPORT IA   CLOUDY    68  67  96 NW3       29.92F
CHICAGO IL     CLOUDY    70  68  93 N6        29.91S
EAU CLAIRE WI  CLOUDY    63  58  83 N6        30.03S
LA CROSSE WI   CLOUDY    66  62  87 N6        29.99F
$$

  *****  SOME NATIONAL WEATHER *****

CITY           SKY/WX    TMP DP  RH WIND       PRES   REMARKS
LA GUARDIA NY  RAIN      73  71  93 NE15      29.81F FOG
RALEIGH NC     CLEAR     76  70  82 SW7       29.87S
ATLANTA GA     MOCLDY    75  72  90 SW3       30.03S
NEW ORLEANS LA CLEAR     81  74  79 CALM      30.01S
OKLAHOMA CITY  PTCLDY    75  69  81 SE8       29.95F
ALBUQUERQUE NM CLEAR     77  46  33 SW3       30.16R
SALT LAKE CITY PTCLDY    78  42  27 S5        30.02F
LOS ANGELES CA PTCLDY    70  65  84 VRB3      29.83F
BOISE ID       CLEAR     72  42  34 S6        29.95S
SEATTLE WA     CLEAR     68  60  75 N7        30.03S
$$

*** WEATHER ACROSS MANITOBA...SASKATCHEWAN AND ONTARIO ***
                ***ONTARIO***

CITY           SKY/WX    TMP DP  RH WIND       PRES   REMARKS
GERALDTON      PTCLDY    48  46  93 SW2       30.10S
THUNDER BAY    CLEAR     50  50 100 NW2       30.11R
SIOUX LOOKOUT  PTCLDY    48  48 100 CALM      30.10F
TORONTO        MOCLDY    68  61  77 N10       29.93R
BIG TROUT LK   CLOUDY    63  54  72 SW5       30.02F
PICKLE LAKE    NOT AVBL
DRYDEN         CLEAR     57  55  94 E3        30.10F
KENORA         CLEAR     59  55  88 N3        30.11S
$$
                *** MANITOBA***

CITY           SKY/WX    TMP DP  RH WIND       PRES   REMARKS
BRANDON        PTCLDY    52  50  93 SW5       30.09F
DAUPHIN        MOCLDY    61  57  88 SW8       30.05S
ISLAND LAKE    MOCLDY    66  59  77 SW5       30.02S
PILOT MOUND      N/A     52  50  93 S5          N/A
THE PAS        PTCLDY    61  57  88 SE3       29.98F
THOMPSON       FOG       57  57 100 E5        30.01S VSB 1/2
WINNIPEG       PTCLDY    55  54  94 CALM      30.09F
LYNN LAKE      MOCLDY    61  59  94 MISG      29.98F
CHURCHILL      PTCLDY    50  48  93 NW7       30.07S
GILLAM         PTCLDY    50  48  93 E3        30.06S
$$
                ***SASKATCHEWAN***

CITY           SKY/WX    TMP DP  RH WIND       PRES   REMARKS
ESTEVAN        PTCLDY    54  52  94 S5        30.11F
KINDERSLEY     CLOUDY    61  59  94 E3        30.04F
LLOYDMINSTER   CLOUDY    59  57  94 SW6       30.02S
PRINCE ALBERT  CLOUDY    63  61  94 VRB3      29.99F
REGINA         CLEAR     54  50  87 SE7       30.08F
YORKTON        CLEAR     61  54  77 S7        30.06F   C1F1C2F2C3F3C4F4C5F5C6F6C7F7C8F8C9F9CaFaCbFbCcFcCdFdCe!



USA.gov is the U.S. government's official web portal to all federal, state and local government web resources and services.